Simultaneous Nadir Overpasses (SNOs) Predictions

Prediction of SNOs between METOP-C and LANDSAT-8 Satellite Orbit:

Table of predicted SNOs for the next 14.0 days since TLE Epoch: 6/10/2023
Index Date (METOP-C) Time (METOP-C) Lat,Lon (METOP-C) SZA (METOP-C ) Date (LANDSAT-8) Time (LANDSAT-8) Lat,Lon (LANDSAT-8) SZA (LANDSAT-8 ) Distance(km) Time Diff (sec)
1 06/11/2023 17:17:12 80.62, -49.90 58.78 06/11/2023 17:18:25 80.37, -48.75 58.70 35.07 73
2 06/11/2023 18:07:21 -81.18, 129.02 119.66 06/11/2023 18:07:22 -81.18, 129.07 119.66 0.72 1
3 06/11/2023 18:57:59 81.21, -62.73 60.46 06/11/2023 18:56:47 81.21, -62.81 60.42 1.46 72
4 06/14/2023 12:50:59 81.18, 27.88 60.14 06/14/2023 12:52:12 81.17, 27.72 60.15 2.85 73
5 06/14/2023 13:41:39 -81.19,-164.29 119.81 06/14/2023 13:41:38 -81.19,-164.32 119.81 0.57 1
6 06/14/2023 14:32:00 81.34, 10.51 61.14 06/14/2023 14:30:46 81.54, 10.37 61.21 21.96 74
7 06/17/2023 08:25:17 81.17, 94.04 59.98 06/17/2023 08:26:27 81.17, 94.14 60.02 1.73 70
8 06/17/2023 09:15:57 -81.19, -98.05 119.95 06/17/2023 09:15:53 -81.19, -97.88 119.93 3.13 4
9 06/20/2023 03:59:35 81.17, 160.52 59.91 06/20/2023 04:00:43 81.16, 160.39 59.92 2.41 68
10 06/20/2023 04:50:15 -81.19, -31.51 120.01 06/20/2023 04:50:09 -81.18, -31.61 120.03 1.87 6
11 06/22/2023 23:33:52 81.18,-132.69 59.94 06/22/2023 23:34:57 81.18,-132.80 59.96 1.81 65



Historial Predications of SNOs between METOP-C and LANDSAT-8
